Tracking 31027 objects as of 19-Jul-2025
HD Live streaming from Space Station
objects crossing your sky now

STARLINK-3789

Track STARLINK-3789 now!
10-day predictions
STARLINK-3789 is classified as:


NORAD ID: 52283
Int'l Code: 2022-041Y
Perigee: 545.8 km
Apogee: 547.9 km
Inclination: 53.2 °
Period: 95.4 minutes
Semi major axis: 6917 km
RCS: Unknown
Launch date: April 21, 2022
Source: United States (US)
Launch site: AIR FORCE EASTERN TEST RANGE (AFETR)
Your satellite tracking list
LANDSAT 5
Track 1 satellite(s)




NASA's NSSDC Master Catalog

Two Line Element Set (TLE):
1 52283U 22041Y   25199.37295833  .00000202  00000-0  30804-4 0  9998
2 52283  53.2177  81.0068 0001497  85.1917 274.9246 15.08845284180213
Source of the keplerian elements: AFSPC